SCOUT X-4 DEB, 2088

Orbit data source: Space-Track

SCOUT X-4 DEB, 2088 is space debris in LEO originally from a launch on Fri, 19 Nov 1965 UTC launched from the Wallops Island (WLPIS). Debris objects in space refer to the collection of defunct objects orbiting the Earth. Examples of debris include non-operational satellites, rocket bodies, and fragments generated from explosions, collisions, or faulty payload assembly.

Loading next visibility...
Identifier
2088, 1965-093D
Orbit
LEO
Country
Flag of USUS
Related business
Manufacturer
Unknown
Mission
Spacecraft
Bus & Motor
Unknown
Mass
Unknown
Launch date (UTC)
1965-11-19 (60 years ago)
Launch vehicle
Unknown
Launch site
Wallops Island (WLPIS)
Object type
Payload
Rocket body
Debris
Shape & HBR
Unknown shape, 0.1 m
Radar Cross Section
Small (<0.1 m²)

Expand to show TLE details & history
Last TLE update: 8 hours ago

TLE from 8 hours ago
0 SCOUT X-4 DEB
1 02088U 65093D   26111.87005112  .00000939  00000-0  21084-3 0  9995
2 02088  59.7166  28.3178 0079369  16.0624 344.2912 14.62192546145663
Epoch: 2026-04-21T20:52Z
TLE epoch observation values (Epoch: 2026-04-21T20:52:52.416Z)
Latitude
-0.00009°
Longitude
-134.84029°
Altitude
633.688 km
Speed
7.571 km/s
True Right ascension
01h 53m 16s
True Declination
0° 00' 00"
Sunlit
Object was in daylight at epoch
Visualization orbit readout
Latitude
Unknown
Longitude
Unknown
Altitude
Unknown
Speed
Unknown
Apparent Right ascension
Unknown
Apparent Declination
Unknown
Sunlit
N/A
Visualization observer readout
Local Sidereal Time
11:42:51
Azimuth
Unknown
Elevation
Unknown
Doppler factor
Unknown
Orbital elements
Apogee altitude
741.431 km
Perigee altitude
629.306 km
Semi-major axis
7,063.505 km
Eccentricity
0.00794
Inclination
59.7166°
RAAN
28.3178°
Arg. of periapsis
16.0624°
True anomaly
344.04258°
Mean anomaly
344.2912°
Eccentric anomaly
344.16713°
Mean motion
3.65606 °/min
Orbital period
98.47 mins
BSTAR
0.00021084
Loading maneuver chart data...
Computing Atmospheric mass density...
Loading historical data...
Loading historical data...
Loading historical data...
Loading historical data...
Loading historical data...
Loading historical data...
Loading historical data...
Other satellites on launch #93 in the year 1965 (1965-11-19 UTC)

Documentation

Showing up to 5 results
|